WetterOnline ( https://www.wetteronline.de )

Wetter aktuell Wustrau

Aktuelles Wetter: Neuruppin - Alt Ruppin (50m)

6-stündlich | Neueste Meldungen
Ortszeit Temperatur Wetter
So, 01.08. 20:00 16.2° C Regen
So, 01.08. 14:00 20.0° C wolkig
So, 01.08. 8:00 16.2° C bedeckt
So, 01.08. 2:00 15.7° C wolkenlos
Sa, 31.07. 20:00 19.8° C leicht bewölkt
Sa, 31.07. 14:00 20.5° C bedeckt
Sa, 31.07. 8:00 18.3° C wolkenlos
Sa, 31.07. 2:00 17.8° C wolkig
Ortszeit Temperatur Wetter
Mo, 02.08. 1:00 13.9° C leicht bewölkt
Mo, 02.08. 0:40 14.0° C leicht bewölkt
Mo, 02.08. 0:30 14.0° C wolkenlos
Mo, 02.08. 0:20 14.0° C wolkenlos
Mo, 02.08. 0:10 13.9° C wolkenlos
Mo, 02.08. 0:00 13.9° C wolkenlos
So, 01.08. 23:50 13.9° C wolkenlos
So, 01.08. 23:30 14.2° C wolkenlos
So, 01.08. 23:00 14.5° C fast wolkenlos
So, 01.08. 22:30 14.9° C bewölkt
So, 01.08. 22:00 15.1° C bewölkt
So, 01.08. 21:30 15.1° C leichter Regen
Ortszeit Relative Feuchte Sichtweite
So, 01.08. 20:00 91% 8 km
So, 01.08. 14:00 64% 40 km
So, 01.08. 8:00 81% 45 km
So, 01.08. 2:00 81% 50 km
Sa, 31.07. 20:00 61% 55 km
Sa, 31.07. 14:00 52% 50 km
Sa, 31.07. 8:00 72% 45 km
Sa, 31.07. 2:00 83% 30 km
Ortszeit Relative Feuchte Sichtweite
Mo, 02.08. 1:00 98% 19 km
Mo, 02.08. 0:40 98% -
Mo, 02.08. 0:30 98% 22 km
Mo, 02.08. 0:20 98% -
Mo, 02.08. 0:10 97% -
Mo, 02.08. 0:00 97% 27 km
So, 01.08. 23:50 97% -
So, 01.08. 23:30 97% 30 km
So, 01.08. 23:00 96% 30 km
So, 01.08. 22:30 95% 40 km
So, 01.08. 22:00 96% 50 km
So, 01.08. 21:30 97% 23 km
Ortszeit Niederschlagsmenge Niederschlagsart
So, 01.08. 20:00 5 l/m2 in 12 Std. Regen
So, 01.08. 14:00 0.0 l/m2 in 6 Std. -
So, 01.08. 8:00 0.0 l/m2 in 12 Std. -
So, 01.08. 2:00 0.0 l/m2 in 6 Std. -
Sa, 31.07. 20:00 0.1 l/m2 in 12 Std. Regen
Sa, 31.07. 14:00 0.0 l/m2 in 6 Std. -
Sa, 31.07. 8:00 0.1 l/m2 in 12 Std. -
Sa, 31.07. 2:00 0.1 l/m2 in 6 Std. Regen
Ortszeit Niederschlagsmenge Niederschlagsart
Mo, 02.08. 1:00 0.0 l/m2 in 1 Std. -
Mo, 02.08. 0:40 keine Meldung -
Mo, 02.08. 0:30 0.0 l/m2 in 1 Std. -
Mo, 02.08. 0:20 keine Meldung -
Mo, 02.08. 0:10 keine Meldung -
Mo, 02.08. 0:00 0.1 l/m2 in 1 Std. -
So, 01.08. 23:50 keine Meldung -
So, 01.08. 23:30 0.0 l/m2 in 1 Std. -
So, 01.08. 23:00 0.0 l/m2 in 1 Std. Regen
So, 01.08. 22:30 0.0 l/m2 in 1 Std. -
So, 01.08. 22:00 0.1 l/m2 in 1 Std. Regen
So, 01.08. 21:30 0.1 l/m2 in 1 Std. -
Ortszeit Stärke Spitze Richtung
km/h Bft. km/h Grad Sektor
So, 01.08. 20:00 11 2 24 320° NW
So, 01.08. 14:00 7 2 25 250° W
So, 01.08. 8:00 9 2 22 260° W
So, 01.08. 2:00 9 2 28 240° SW
Sa, 31.07. 20:00 19 3 46 250° W
Sa, 31.07. 14:00 19 3 41 250° W
Sa, 31.07. 8:00 9 2 31 240° SW
Sa, 31.07. 2:00 4 1 7 120° SO
Ortszeit Stärke Spitze Richtung
km/h Bft. km/h Grad Sektor
Mo, 02.08. 1:00 7 2 14 260° W
Mo, 02.08. 0:40 7 2 - 250° W
Mo, 02.08. 0:30 7 2 14 240° SW
Mo, 02.08. 0:20 7 2 - 240° SW
Mo, 02.08. 0:10 7 2 - 240° SW
Mo, 02.08. 0:00 7 2 14 240° SW
So, 01.08. 23:50 7 2 - 240° SW
So, 01.08. 23:30 7 2 14 270° W
So, 01.08. 23:00 4 1 11 260° W
So, 01.08. 22:30 6 1 9 270° W
So, 01.08. 22:00 4 1 11 250° W
So, 01.08. 21:30 2 1 6 270° W
Ortszeit Untergrenze Bedeckung Gattung
total tief tief mittel hoch
So, 01.08. 20:00 510 m 8/8 7/8 - - -
So, 01.08. 14:00 1500 m 8/8 2/8 - - -
So, 01.08. 8:00 720 m 8/8 8/8 - - -
So, 01.08. 2:00 - 0/8 0/8 - - -
Sa, 31.07. 20:00 2400 m 2/8 2/8 - - -
Sa, 31.07. 14:00 1500 m 8/8 8/8 - - -
Sa, 31.07. 8:00 - 0/8 0/8 - - -
Sa, 31.07. 2:00 2400 m 8/8 1/8 - - -
Ortszeit Bedeckungsgrad in Achtel und Wolkenuntergrenze
Mo, 02.08. 1:00 3(2400m)
Mo, 02.08. 0:40 1(90m) 2(2400m)
Mo, 02.08. 0:30 keine Wolken
Mo, 02.08. 0:20 keine Wolken
Mo, 02.08. 0:10 keine Wolken
Mo, 02.08. 0:00 keine Wolken
So, 01.08. 23:50 keine Wolken
So, 01.08. 23:30 keine Wolken
So, 01.08. 23:00 1(3000m)
So, 01.08. 22:30 7(3000m)
So, 01.08. 22:00 5(3300m) 7(3900m)
So, 01.08. 21:30 2(2100m) 7(2700m) 7(3900m)
Ortszeit Luftdruck NN (hPa) Tendenz (hPa in 3 Std.)
So, 01.08. 20:00 1008 + 1,1
So, 01.08. 14:00 1007 - 0,4
So, 01.08. 8:00 1008 + 0,3
So, 01.08. 2:00 1007 - 0,1
Sa, 31.07. 20:00 1006 + 0,4
Sa, 31.07. 14:00 1006 + 0,1
Sa, 31.07. 8:00 1006 + 0,8
Sa, 31.07. 2:00 1005 - 1,3
Ortszeit Luftdruck NN (hPa) Tendenz (hPa in 3 Std.)
Mo, 02.08. 1:00 1008 + 0,6
Mo, 02.08. 0:40 1008 keine Meldung
Mo, 02.08. 0:30 1008 + 0,7
Mo, 02.08. 0:20 1008 keine Meldung
Mo, 02.08. 0:10 1008 keine Meldung
Mo, 02.08. 0:00 1008 + 0,3
So, 01.08. 23:50 1008 keine Meldung
So, 01.08. 23:30 1008 + 0,4
So, 01.08. 23:00 1008 + 0,3
So, 01.08. 22:30 1008 + 1,1
So, 01.08. 22:00 1008 + 1,3
So, 01.08. 21:30 1008 + 0,7
Ortszeit Schneehöhe (cm)
So, 01.08. 20:00 -
So, 01.08. 14:00 -
So, 01.08. 8:00 -
So, 01.08. 2:00 -
Sa, 31.07. 20:00 -
Sa, 31.07. 14:00 -
Sa, 31.07. 8:00 -
Sa, 31.07. 2:00 -
Ortszeit Schneehöhe (cm)
Mo, 02.08. 1:00 -
Mo, 02.08. 0:40 -
Mo, 02.08. 0:30 -
Mo, 02.08. 0:20 -
Mo, 02.08. 0:10 -
Mo, 02.08. 0:00 -
So, 01.08. 23:50 -
So, 01.08. 23:30 -
So, 01.08. 23:00 -
So, 01.08. 22:30 -
So, 01.08. 22:00 -
So, 01.08. 21:30 -
Link zu dieser Seite / Seite empfehlen

Das Wetter in ...